CET,Max TemperatureF,Mean TemperatureF,Min TemperatureF,Max Dew PointF,MeanDew PointF,Min DewpointF,Max Humidity, Mean Humidity, Min Humidity, Max Sea Level PressureIn, Mean Sea Level PressureIn, Min Sea Level PressureIn, Max VisibilityMiles, Mean VisibilityMiles, Min VisibilityMiles, Max Wind SpeedMPH, Mean Wind SpeedMPH, Max Gust SpeedMPH,PrecipitationIn, CloudCover, Events, WindDirDegrees
2011-10-1,80,63,46,55,51,45,94,66,37,30.33,30.26,30.18,6,4,4,9,5,,0.00,,Fog,289
2011-10-2,78,64,50,55,51,46,94,70,39,30.24,30.19,30.15,4,4,4,9,4,,0.00,0,Fog,359
2011-10-3,78,60,42,52,47,41,100,70,32,30.24,30.21,30.18,6,5,3,7,2,,0.00,1,Fog,184
2011-10-4,80,62,44,54,49,43,100,70,34,30.18,30.15,30.09,5,4,3,7,3,,0.00,1,Fog,284
2011-10-5,80,66,51,55,52,48,88,67,37,30.15,30.12,30.09,5,5,5,13,6,,0.00,,,296
2011-10-6,78,64,50,55,51,46,94,66,41,30.12,30.03,29.86,4,4,4,11,6,,0.00,,,238
2011-10-7,64,56,48,52,47,43,93,76,59,29.86,29.73,29.68,6,5,2,18,10,29,0.00,6,Rain,262
2011-10-8,57,50,42,45,43,41,93,76,58,29.83,29.81,29.74,6,6,6,16,12,22,0.00,5,,287
2011-10-9,53,47,41,48,42,37,93,86,67,30.06,29.91,29.80,6,6,1,16,8,27,0.00,6,Fog,332
2011-10-10,59,47,35,43,39,34,93,74,48,30.09,30.07,30.04,6,5,2,11,7,,0.00,6,Fog-Rain,286
2011-10-11,68,57,46,57,51,37,100,83,68,30.06,30.03,29.98,6,5,2,11,8,,0.00,7,Rain,263
2011-10-12,69,60,51,55,50,45,82,71,56,30.04,29.97,29.92,6,6,4,22,10,36,0.00,7,Rain,295
2011-10-13,62,52,42,48,42,34,94,71,34,30.27,30.14,30.04,6,6,3,13,6,25,0.00,5,Rain,311
2011-10-14,53,44,35,41,36,34,93,76,51,30.48,30.37,30.27,6,6,6,9,6,,0.00,5,,13
2011-10-15,57,42,28,39,33,27,100,73,41,30.48,30.43,30.33,6,6,5,16,5,,0.00,1,,313
2011-10-16,53,42,28,30,28,25,86,67,35,30.51,30.45,30.42,,,,13,9,,0.00,,,28
2011-10-17,53,40,26,30,25,7,93,65,26,30.45,30.35,30.27,,,,9,3,,0.00,,,26
2011-10-18,59,41,23,28,23,19,93,58,22,30.27,30.18,30.12,5,5,3,7,4,,0.00,0,,226
2011-10-19,68,49,30,46,36,23,75,59,42,30.12,30.06,30.01,6,5,3,13,7,25,0.00,3,,183
2011-10-20,59,52,44,45,43,41,100,72,58,30.21,30.10,30.01,6,6,3,13,9,,0.00,8,Rain,307
2011-10-21,53,46,39,45,41,36,100,86,54,30.36,30.28,30.21,6,5,1,11,7,,0.00,7,Fog-Rain,1
2011-10-22,55,44,33,46,39,32,93,85,71,30.36,30.31,30.27,6,6,1,9,5,,0.00,8,Fog-Rain,39
2011-10-23,50,42,35,50,47,34,100,96,93,30.27,30.25,30.21,6,2,1,9,6,,0.00,8,Rain,75
2011-10-24,53,50,48,52,48,46,100,96,88,30.21,30.18,30.15,3,2,0,9,7,,0.00,8,Fog-Rain,98
2011-10-25,55,50,44,48,46,43,100,85,76,30.15,30.13,30.09,6,4,1,18,11,27,0.00,7,Rain,135
2011-10-26,62,52,42,46,44,39,87,75,55,30.21,30.18,30.12,6,4,2,18,11,,0.00,2,,127
2011-10-27,60,52,44,45,41,37,87,71,52,30.30,30.25,30.21,3,3,3,16,9,,0.00,,,129
2011-10-28,59,49,37,41,38,36,100,72,48,30.39,30.36,30.30,6,4,2,16,7,,0.00,0,Fog,135
2011-10-29,60,46,33,43,38,32,100,81,45,30.42,30.38,30.33,5,3,1,7,2,,0.00,1,Fog,150
2011-10-30,59,44,30,41,37,30,100,78,45,30.33,30.29,30.24,5,2,2,9,2,,0.00,2,Fog,144
2011-10-31,60,48,37,43,39,34,93,76,42,30.24,30.21,30.18,5,4,2,7,1,,0.00,2,Fog,149